Regional Weather Roundup
Issued by NWS Kansas City/Pleasant Hill, MO

Home | Current Version | Previous Version | Text Only | Print | Product List | Glossary On
Versions: 1 2 3 4 5 6 7 8 9 10 11 12 13 14 15 16 17 18 19 20 21 22 23 24 25 26 27 28 29 30 31 32 33 34 35 36 37 38 39 40 41 42 43 44 45 46 47 48 49 50
000
ASUS43 KEAX 030115
RWREAX

WEATHER ROUNDUP FOR EASTERN KANSAS AND NORTHWEST MISSOURI
NATIONAL WEATHER SERVICE KANSAS CITY/PLEASANT HILL MO
800 PM CDT TUE JUN 02 2020

KSZ040-057-103>105-MOZ028-029-037-043-030200-
...KANSAS CITY METROPOLITAN AREA...

CITY           SKY/WX    TMP DP  RH WIND       PRES   REMARKS
K.C. INTL      MOCLDY    79  67  66 S8        29.92R
K.C. DOWNTOWN  PTCLDY    83  64  52 S9        29.91S
LEES SUMMIT    PTCLDY    83  66  56 S14G22    29.94S
OLATHE - IXD   PTCLDY    81  65  58 S12       29.94S
OLATHE - OJC   PTCLDY    81  67  62 S9        29.94S
LAWRENCE       PTCLDY    84  67  56 S8        29.91S

$$

MOZ001>008-011>017-020>025-030>033-038>040-044>046-053-054-030200-
...NORTHERN AND CENTRAL MISSOURI...

CITY           SKY/WX    TMP DP  RH WIND       PRES   REMARKS
ST. JOSEPH     PTCLDY    84  66  54 S12       29.89S
MOSBY          PTCLDY    82  63  51 S6        29.92R
HARRISONVILLE  PTCLDY    82  64  54 SW7       29.98R
WHITEMAN AFB   PTCLDY    77  70  78 S8        29.91S
CLINTON        NOT AVBL
SEDALIA        CLEAR     80  65  59 S7        29.97S
MARSHALL       CLEAR     81  66  61 S7        29.95S
CHILLICOTHE      N/A     84  68  58 SW7       29.91S
MOBERLY        CLEAR     82  61  47 S8        29.94F
KIRKSVILLE     CLEAR     81  65  58 SW9       29.91F

$$

MOZ041-047>049-056>058-063>065-088>090-097-030200-
...EASTERN AND SOUTHERN MISSOURI...

CITY           SKY/WX    TMP DP  RH WIND       PRES   REMARKS
ST. LOUIS INTL MOCLDY    85  60  42 SW9       29.95F
SPIRIT OF STL  PTCLDY    81  65  58 S6        29.94S
COLUMBIA       CLEAR     79  63  57 S9        29.97R
JEFFERSON CITY CLEAR     84  63  49 S8        29.95S
MEXICO         CLEAR     81  63  54 SW9       29.95S HAZE
HANNIBAL       PTCLDY    81  59  47 SW7         N/A
ROLLA          CLEAR     75  66  73 S6        30.00F
LEBANON        PTCLDY    79  63  57 S6        30.02S
OSAGE BEACH    PTCLDY    79  68  69 S3        29.99S
SPRINGFIELD    PTCLDY    77  67  71 S7        30.01S
BRANSON        MOCLDY    75  66  73 CALM      30.05F
JOPLIN         PTCLDY    77  66  68 S9        30.00S
SIKESTON       CLEAR     82  55  39 S3        30.00S

$$

IAZ060-094-KSZ022-034>040-054-083-096-NEZ052-066-093-030200-
...KANSAS...SOUTHEAST NEBRASKA AND IOWA...

CITY           SKY/WX    TMP DP  RH WIND       PRES   REMARKS
TOPEKA         PTCLDY    85  67  54 S13       29.90S
MANHATTAN      PTCLDY    85  68  56 S8        29.89R
EMPORIA        PTCLDY    81  70  69 S13G22    29.93S
CHANUTE        MOCLDY    82  69  64 S12       29.96S
SALINA         PTCLDY    81  67  62 S9        29.88S
WICHITA        MOCLDY    86  65  49 S17G24    29.91S
OMAHA          CLOUDY    90  64  42 S9        29.79F HX  91
LINCOLN        PTCLDY    87  67  51 S12       29.82F HX  90
FALLS CITY     PTCLDY    85  66  53 S13       29.86F
LAMONI         CLEAR     82  67  60 S12       29.86F
DES MOINES     PTCLDY    85  68  56 SW10      29.81R

$$




USA.gov is the U.S. government's official web portal to all federal, state and local government web resources and services.